Flag for Czech Republic Weather past 2 weeks in Tábor, Czech Republic

Now
58 °F

Passing clouds.


Feels Like: 58 °F
Forecast: 48 / 65 °F
Wind: 2 mph from West

Location: Kocelovice

Current Time: Sep 4, 2015 at 9:38:53 PM

Latest Report: Sep 4, 2015 at 9:00 PM


Visibility: 31 mi

Pressure: 29.95 "Hg

Humidity: 57%

Dew point: 43 °F

Location of TáborLocation

Historic Weather in Tábor — Graph

°F

Tábor temperature yesterday

Maximum temperature yesterday: 66 °F (at 4:00 PM)
Minimum temperature yesterday: 51 °F (at 5:00 AM)
Average temperature yesterday: 58 °F

Past Weeks' High & Low Weather Summary

 TemperatureHumidityPressure
High93 °F (Aug 31, 2:00 PM)100% (Sep 3, 1:00 AM)30.26 "Hg (Sep 3, 1:00 AM)
Low46 °F (Aug 26, 4:00 AM)20% (Aug 26, 5:00 PM)29.65 "Hg (Sep 1, 4:00 PM)
Average68 °F60%29.99 "Hg
* Reported Aug 20 8:00 PM — Sep 4 8:00 PM, Tábor, Weather by CustomWeather, © 2015

Note: Actual official high and low records may vary slightly from our data, if they occured in-between our weather recording intervals... More about our weather records

Advertising

Tábor weather history for previous 24 hours

 ConditionsComfort  
Time TempWeatherWind HumidityBarometerVisibility
8:00 PM
Fri, Sep 4
60 °FPassing clouds.2 mph53%29.94 "Hg37 mi
7:00 PM63 °FScattered clouds.5 mph47%29.92 "Hg43 mi
6:00 PM64 °FPartly sunny.3 mph46%29.92 "Hg43 mi
5:00 PM64 °FOvercast.6 mph44%29.93 "Hg43 mi
4:00 PM64 °FPartly sunny.5 mph42%29.94 "Hg43 mi
3:00 PM67 °FPartly sunny.7 mph42%29.95 "Hg43 mi
2:00 PM65 °FOvercast.6 mph44%29.96 "Hg31 mi
1:00 PM63 °FPartly sunny.5 mph47%29.97 "Hg43 mi
12:00 PM64 °FPassing clouds.5 mph49%29.97 "Hg22 mi
11:00 AM62 °FPassing clouds.5 mph62%29.98 "Hg16 mi
10:00 AM58 °FPassing clouds.6 mph75%29.98 "Hg9 mi
9:00 AM57 °FFog.3 mph84%29.98 "Hg6 mi
8:00 AM54 °FFog.N/A96%29.98 "Hg2 mi
7:00 AM53 °FFog.1 mph98%29.98 "Hg3 mi
6:00 AM53 °FFog.1 mph98%29.97 "Hg2 mi
5:00 AM53 °FFog.2 mph98%29.96 "Hg3 mi
4:00 AM54 °FFog.5 mph96%29.96 "Hg5 mi
3:00 AM54 °FCool.3 mph96%29.96 "Hg7 mi
2:00 AM55 °FCool.N/A95%29.96 "Hg9 mi
1:00 AM56 °FFog.5 mph97%29.95 "Hg5 mi
12:00 AM56 °FFog.2 mph98%29.95 "Hg6 mi
10:00 PM
Thu, Sep 3
57 °FLight rain. Low clouds.1 mph97%29.94 "Hg6 mi
9:00 PM56 °FRain. Low clouds.N/A99%29.94 "Hg4 mi
Weather by CustomWeather, © 2015

See weather overviewHow to use our weather pages